Location: Heilwood
(40.6210°N, 78.9150°W)
Time: 17:31:07
(UTC-05:00)

BREEZE-M DEB (TANK) - Visible Passes

Search period start: 12 February 2016 00:00
Search period end: 22 February 2016 00:00
Orbit: 302 x 15919 km, 49.5° (Epoch: 12 February)

Date Brightness Start Highest point End Pass type
(mag) Time Alt. Az. Time Alt. Az. Time Alt. Az.
12 Feb 9.6 03:04:08 10° ESE 04:33:39 28° E 05:37:59 10° NE visible
13 Feb 9.5 03:05:14 10° SE 04:38:41 31° E 05:46:24 10° NE visible
14 Feb 9.4 03:07:09 10° SE 04:43:47 34° E 05:54:34 10° NE visible
15 Feb 9.3 03:09:43 10° SE 04:48:54 36° E 06:02:34 10° NE visible
16 Feb 9.2 03:12:53 10° SE 04:54:05 39° E 06:10:24 10° NE visible
17 Feb 9.1 03:16:31 10° SE 04:59:18 42° E 06:18:05 10° NE visible
18 Feb 9.0 03:20:32 10° SSE 05:04:36 45° E 06:25:41 10° NE visible
19 Feb 9.0 03:24:54 10° SSE 05:09:56 48° E 06:33:10 10° NE visible
20 Feb 8.9 03:29:32 10° SSE 05:15:22 50° E 06:40:34 10° NE visible
21 Feb 8.9 03:34:24 10° SSE 05:20:53 53° E 06:47:53 10° NE visible
